Weather History for Kotzebue, AK

Change the Weather History Date:

Thursday, March 14, 2013

  Actual Average Record
Temperature  
Mean Temperature -1 °F -  
Max Temperature 8 °F - 29 °F (1956)
Min Temperature -10 °F -7 °F -42 °F (1929)
Degree Days  
Heating Degree Days 66 65  
Month to date heating degree days 826 910  
Since 1 July heating degree days 11109 11152  
Cooling Degree Days 0    
Month to date cooling degree days 0  
Year to date cooling degree days 0  
Moisture  
Dew Point -9 °F    
Average Humidity 0    
Maximum Humidity 0    
Minimum Humidity 0    
Precipitation  
Precipitation 0.00 in 0.02 in 0.35 in (1991)
Month to date precipitation 0.30 0.24  
Year to date precipitation 2.36 1.52  
Snow  
Snow 0.00 in 0.20 in 3.60 in (1991)
Month to date snowfall 3.0 3.3  
Since 1 July snowfall 27.3 50.9  
Snow Depth 11.00 in    
Sea Level Pressure  
Sea Level Pressure 30.32 in    
Wind  
Wind Speed 9 mph (ENE)    
Max Wind Speed 21 mph    
Max Gust Speed 23 mph    
Visibility 10 miles    
Events      
T = Trace of Precipitation, MM = Missing Value Source: NWS Daily Summary

Daily Weather History Graph

Daily Weather History Graph

Search for Another Location

Airport:

Trip Planner

Search our weather history database for the weather conditions in past years. The results will help you decide how hot, cold, wet, or windy it might be!

Date:

Astronomy

Mar. 14, 2013 Rise Set
Actual Time 9:12 AM AKDT 8:48 PM AKDT
Civil Twilight 8:19 AM AKDT 9:41 PM AKDT
Nautical Twilight 7:16 AM AKDT 10:45 PM AKDT
Astronomical Twilight 6:04 AM AKDT 11:58 PM AKDT
Moon 8:58 AM AKDT (3/14) 12:41 AM AKDT (3/14)
Length of Visible Light 13h 21m
Length of Day
11h 36m
Waxing Crescent, 10% of the Moon is Illuminated
Mar 14
Waxing Crescent
Mar 19
First Quarter
Mar 27
Full
Apr 2
Last Quarter
Apr 10
New

Hourly Weather History & Observations

Time (AKDT) Temp. Windchill Dew Point Humidity Pressure Visibility Wind Dir Wind Speed Gust Speed Precip Events Conditions
12:53 AM -2.0 °F - -9.0 °F 72% 30.39 in 10.0 mi Calm Calm - N/A   Clear
1:53 AM -0.9 °F -21.9 °F -9.0 °F 69% 30.39 in 10.0 mi ESE 17.3 mph - N/A   Clear
2:53 AM -2.0 °F -16.6 °F -9.0 °F 72% 30.43 in 10.0 mi East 8.1 mph - N/A   Clear
3:53 AM 1.0 °F -6.7 °F -8.0 °F 66% 30.43 in 10.0 mi Variable 3.5 mph - N/A   Clear
4:53 AM 1.0 °F -17.3 °F -9.0 °F 63% 30.40 in 10.0 mi East 13.8 mph - N/A   Clear
5:06 AM 1.4 °F -14.5 °F -7.6 °F 66% 30.40 in 10.0 mi East 10.4 mph - N/A   Clear
5:53 AM -2.0 °F -16.6 °F -9.9 °F 69% 30.40 in 10.0 mi East 8.1 mph - N/A   Clear
6:53 AM -2.0 °F -19.6 °F -11.0 °F 66% 30.40 in 10.0 mi SE 11.5 mph - N/A   Clear
7:53 AM 1.0 °F -8.7 °F -9.0 °F 63% 30.38 in 10.0 mi East 4.6 mph - N/A   Clear
8:53 AM -6.0 °F -16.9 °F -13.0 °F 72% 30.36 in 10.0 mi NE 4.6 mph - N/A   Clear
9:53 AM -5.1 °F - -13.0 °F 69% 30.37 in 10.0 mi Calm Calm - N/A   Clear
10:53 AM -5.1 °F -15.8 °F -13.0 °F 69% 30.35 in 10.0 mi ESE 4.6 mph - N/A   Clear
11:53 AM -2.9 °F -15.0 °F -11.9 °F 65% 30.35 in 10.0 mi NE 5.8 mph - N/A   Clear
12:53 PM 1.0 °F -11.7 °F -9.9 °F 60% 30.34 in 10.0 mi East 6.9 mph - N/A   Clear
1:53 PM 1.0 °F -10.3 °F -9.0 °F 63% 30.32 in 10.0 mi ENE 5.8 mph - N/A   Clear
2:53 PM 3.0 °F -12.5 °F -8.0 °F 60% 30.30 in 10.0 mi NE 10.4 mph - N/A   Clear
3:53 PM 3.0 °F -12.5 °F -7.1 °F 63% 30.27 in 10.0 mi NE 10.4 mph - N/A   Clear
4:53 PM 6.1 °F -6.8 °F -7.1 °F 55% 30.25 in 10.0 mi NNE 8.1 mph - N/A   Clear
5:53 PM 5.0 °F -6.9 °F -6.0 °F 61% 30.25 in 10.0 mi NNE 6.9 mph - N/A   Clear
6:53 PM 5.0 °F -6.9 °F -6.0 °F 61% 30.22 in 10.0 mi NE 6.9 mph - N/A   Clear
7:53 PM 3.0 °F -6.4 °F -8.0 °F 60% 30.22 in 10.0 mi NE 4.6 mph - N/A   Clear
8:53 PM 5.0 °F -11.6 °F -9.0 °F 52% 30.20 in 10.0 mi ENE 12.7 mph - N/A   Clear
9:53 PM 6.1 °F -12.8 °F -8.0 °F 53% 30.19 in 10.0 mi ENE 17.3 mph - N/A   Clear
10:53 PM 6.1 °F -6.8 °F -8.0 °F 53% 30.19 in 10.0 mi NE 8.1 mph - N/A   Clear
11:53 PM 1.0 °F -16.6 °F -8.0 °F 66% 30.18 in 10.0 mi ENE 12.7 mph - N/A   Clear